Location: Bittkow
(50.3000°N, 19.0000°E)
Time: 13:37:00
(UTC+00:00)

ATLAS 5 CENTAUR R/B - Pass Details

Date: 19 September 2020
Orbit: 527 x 1131 km, 63.4° (Epoch: 26 October)

Event Time Altitude Azimuth Distance (km) Brightness Sun altitude
Exits shadow 03:49:13 - 298° (WNW) 2,730 4.4 -6.7°
Reaches altitude 10° 03:51:27 10° 314° (NW) 2,099 3.9 -6.3°
Maximum altitude 03:54:51 19° 360° (N) 1,703 3.9 -5.8°
Drops below altitude 10° 03:58:36 10° 44° (NE) 2,369 5.4 -5.2°
Sets 04:02:00 0° 62° (ENE) 3,435 7.0 -4.7°
